• In Uzbekistan
  • List of Countries
  • For 7 days
  • Water Temperature
  • Satellite Maps
  • Weather Map
  • Weather Widgets
  • user-avatar
    Login

    Hourly Weather Nakhchivan

    Today, 26 March, Sunday

    Time Temperature Precipitation Wind Pressure Humidity
    00:00 +6°C° 0 mm 0 mps 684 mmHg 53%
    01:00 +6°C° 0 mm 1 mps 684 mmHg 53%
    02:00 +6°C° 0 mm 1 mps 684 mmHg 53%
    03:00 +5°C° 0 mm 1 mps 684 mmHg 52%
    04:00 +5°C° 0 mm 1 mps 685 mmHg 51%
    05:00 +5°C° 0 mm 1 mps 685 mmHg 51%
    06:00 +5°C° 0 mm 1 mps 685 mmHg 51%
    07:00 +7°C° 0 mm 1 mps 685 mmHg 47%
    08:00 +9°C° 0 mm 1 mps 686 mmHg 42%
    09:00 +11°C° 0 mm 1 mps 686 mmHg 38%
    10:00 +12°C° 0 mm 1 mps 686 mmHg 36%
    11:00 +13°C° 0 mm 1 mps 686 mmHg 34%
    12:00 +14°C° 0 mm 1 mps 685 mmHg 33%
    13:00 +15°C° 0 mm 1 mps 685 mmHg 32%
    14:00 +15°C° 0 mm 1 mps 685 mmHg 32%
    15:00 +16°C° 0 mm 1 mps 685 mmHg 31%
    16:00 +15°C° 0 mm 1 mps 685 mmHg 34%
    17:00 +14°C° 0 mm 1 mps 685 mmHg 37%
    18:00 +13°C° 0 mm 1 mps 686 mmHg 41%
    19:00 +12°C° 0 mm 2 mps 686 mmHg 43%
    20:00 +10°C° 0 mm 2 mps 686 mmHg 45%
    21:00 +9°C° 0 mm 2 mps 687 mmHg 47%
    22:00 +8°C° 0 mm 2 mps 687 mmHg 47%
    23:00 +8°C° 0 mm 2 mps 687 mmHg 48%

    Tomorrow, 27 March, Monday

    Time Temperature Precipitation Wind Pressure Humidity
    00:00 +8°C° 0 mm 2 mps 687 mmHg 49%
    01:00 +7°C° 0 mm 2 mps 687 mmHg 50%
    02:00 +7°C° 0 mm 2 mps 687 mmHg 50%
    03:00 +6°C° 0 mm 2 mps 687 mmHg 51%
    04:00 +7°C° 0 mm 1 mps 687 mmHg 52%
    05:00 +7°C° 0 mm 1 mps 687 mmHg 52%
    06:00 +7°C° 0 mm 1 mps 686 mmHg 53%
    07:00 +8°C° 0 mm 2 mps 686 mmHg 49%
    08:00 +9°C° 0 mm 2 mps 686 mmHg 46%
    09:00 +12°C° 0 mm 2 mps 686 mmHg 42%
    10:00 +14°C° 0 mm 2 mps 686 mmHg 41%
    11:00 +15°C° 0 mm 2 mps 686 mmHg 39%
    12:00 +16°C° 0 mm 2 mps 686 mmHg 37%
    13:00 +16°C° 0 mm 2 mps 685 mmHg 36%
    14:00 +17°C° 0 mm 3 mps 685 mmHg 36%
    15:00 +17°C° 0 mm 4 mps 685 mmHg 35%
    16:00 +16°C° 0 mm 3 mps 685 mmHg 39%
    17:00 +15°C° 0 mm 2 mps 684 mmHg 43%
    18:00 +14°C° 0 mm 2 mps 684 mmHg 46%
    19:00 +13°C° 0 mm 2 mps 685 mmHg 49%
    20:00 +12°C° 0 mm 2 mps 685 mmHg 52%
    21:00 +10°C° 0 mm 2 mps 685 mmHg 55%
    22:00 +10°C° 0 mm 2 mps 685 mmHg 55%
    23:00 +10°C° 0 mm 2 mps 685 mmHg 56%

    Day after tomorrow, 28 March, Tuesday

    Time Temperature Precipitation Wind Pressure Humidity
    00:00 +10°C° 0 mm 1 mps 685 mmHg 57%
    01:00 +10°C° 0 mm 1 mps 685 mmHg 58%
    02:00 +9°C° 0 mm 2 mps 684 mmHg 59%
    03:00 +8°C° 0 mm 2 mps 684 mmHg 60%
    04:00 +8°C° 0 mm 2 mps 684 mmHg 62%
    05:00 +8°C° 0 mm 2 mps 685 mmHg 63%
    06:00 +9°C° 0 mm 1 mps 685 mmHg 64%
    07:00 +9°C° 0 mm 2 mps 685 mmHg 60%
    08:00 +12°C° 0 mm 2 mps 685 mmHg 56%
    09:00 +13°C° 0 mm 2 mps 685 mmHg 52%
    10:00 +14°C° 0 mm 2 mps 686 mmHg 48%
    11:00 +15°C° 0 mm 2 mps 686 mmHg 45%
    12:00 +16°C° 0 mm 2 mps 686 mmHg 42%
    13:00 +17°C° 0.2 mm 2 mps 685 mmHg 40%
    14:00 +17°C° 0.2 mm 2 mps 685 mmHg 38%
    15:00 +18°C° 0.2 mm 2 mps 685 mmHg 37%
    16:00 +17°C° 0.1 mm 2 mps 685 mmHg 40%
    17:00 +16°C° 0.1 mm 2 mps 685 mmHg 43%
    18:00 +15°C° 0.1 mm 2 mps 685 mmHg 46%
    19:00 +14°C° 0.1 mm 2 mps 686 mmHg 49%
    20:00 +13°C° 0.1 mm 2 mps 686 mmHg 52%
    21:00 +12°C° 0.1 mm 1 mps 687 mmHg 56%
    22:00 +11°C° 0 mm 1 mps 687 mmHg 56%
    23:00 +11°C° 0 mm 1 mps 686 mmHg 57%

    29 March, Wednesday

    Time Temperature Precipitation Wind Pressure Humidity
    00:00 +10°C° 0 mm 1 mps 686 mmHg 57%
    01:00 +10°C° 0 mm 1 mps 686 mmHg 59%
    02:00 +9°C° 0 mm 1 mps 686 mmHg 60%
    03:00 +9°C° 0 mm 1 mps 686 mmHg 61%
    04:00 +9°C° 0 mm 1 mps 686 mmHg 63%
    05:00 +8°C° 0 mm 1 mps 686 mmHg 64%
    06:00 +8°C° 0 mm 1 mps 686 mmHg 66%
    07:00 +10°C° 0 mm 1 mps 686 mmHg 60%
    08:00 +11°C° 0 mm 1 mps 686 mmHg 55%
    09:00 +13°C° 0 mm 1 mps 687 mmHg 49%
    10:00 +14°C° 0 mm 1 mps 687 mmHg 47%
    11:00 +15°C° 0 mm 1 mps 687 mmHg 44%
    12:00 +16°C° 0 mm 1 mps 687 mmHg 41%
    13:00 +17°C° 0 mm 2 mps 686 mmHg 40%
    14:00 +17°C° 0 mm 2 mps 686 mmHg 39%
    15:00 +17°C° 0 mm 2 mps 686 mmHg 38%
    16:00 +16°C° 0 mm 2 mps 686 mmHg 41%
    17:00 +16°C° 0 mm 2 mps 686 mmHg 44%
    18:00 +15°C° 0 mm 2 mps 687 mmHg 48%
    19:00 +14°C° 0 mm 2 mps 687 mmHg 51%
    20:00 +13°C° 0 mm 1 mps 688 mmHg 54%
    21:00 +12°C° 0 mm 1 mps 688 mmHg 57%
    22:00 +11°C° 0 mm 1 mps 688 mmHg 58%
    23:00 +10°C° 0 mm 1 mps 688 mmHg 59%

    30 March, Thursday

    Time Temperature Precipitation Wind Pressure Humidity
    00:00 +10°C° 0 mm 1 mps 688 mmHg 61%
    01:00 +10°C° 0 mm 1 mps 688 mmHg 62%
    02:00 +9°C° 0 mm 1 mps 688 mmHg 63%
    03:00 +9°C° 0 mm 1 mps 688 mmHg 64%
    04:00 +8°C° 0 mm 1 mps 688 mmHg 65%
    05:00 +8°C° 0 mm 1 mps 689 mmHg 66%
    06:00 +8°C° 0 mm 1 mps 689 mmHg 67%
    07:00 +10°C° 0 mm 1 mps 689 mmHg 60%
    08:00 +12°C° 0 mm 1 mps 690 mmHg 52%
    09:00 +13°C° 0 mm 1 mps 690 mmHg 45%
    10:00 +15°C° 0 mm 1 mps 690 mmHg 43%
    11:00 +16°C° 0 mm 1 mps 690 mmHg 40%
    12:00 +18°C° 0 mm 1 mps 689 mmHg 38%
    13:00 +18°C° 0 mm 1 mps 689 mmHg 37%
    14:00 +19°C° 0 mm 1 mps 688 mmHg 36%
    15:00 +20°C° 0 mm 1 mps 688 mmHg 35%
    16:00 +19°C° 0 mm 1 mps 688 mmHg 38%
    17:00 +18°C° 0 mm 1 mps 688 mmHg 41%
    18:00 +16°C° 0 mm 1 mps 687 mmHg 43%
    19:00 +15°C° 0 mm 1 mps 687 mmHg 46%
    20:00 +14°C° 0 mm 1 mps 687 mmHg 48%
    21:00 +13°C° 0 mm 1 mps 687 mmHg 51%
    22:00 +12°C° 0 mm 1 mps 687 mmHg 52%
    23:00 +12°C° 0 mm 1 mps 687 mmHg 53%

    31 March, Friday

    Time Temperature Precipitation Wind Pressure Humidity
    00:00 +12°C° 0 mm 1 mps 686 mmHg 54%
    01:00 +11°C° 0 mm 1 mps 686 mmHg 55%
    02:00 +11°C° 0 mm 1 mps 686 mmHg 56%
    03:00 +10°C° 0 mm 1 mps 685 mmHg 57%
    04:00 +10°C° 0 mm 1 mps 685 mmHg 58%
    05:00 +10°C° 0 mm 1 mps 685 mmHg 58%
    06:00 +9°C° 0 mm 1 mps 685 mmHg 59%
    07:00 +11°C° 0 mm 1 mps 685 mmHg 53%
    08:00 +13°C° 0 mm 1 mps 685 mmHg 47%
    09:00 +15°C° 0 mm 1 mps 686 mmHg 41%
    10:00 +16°C° 0 mm 1 mps 685 mmHg 38%
    11:00 +19°C° 0 mm 1 mps 685 mmHg 36%
    12:00 +20°C° 0 mm 1 mps 685 mmHg 34%
    13:00 +20°C° 0 mm 1 mps 685 mmHg 33%
    14:00 +21°C° 0 mm 1 mps 684 mmHg 33%
    15:00 +21°C° 0 mm 1 mps 684 mmHg 33%
    16:00 +20°C° 0.3 mm 1 mps 684 mmHg 38%
    17:00 +19°C° 0.3 mm 1 mps 684 mmHg 43%
    18:00 +18°C° 0.3 mm 1 mps 684 mmHg 48%
    19:00 +16°C° 0.3 mm 1 mps 683 mmHg 52%
    20:00 +15°C° 0.3 mm 1 mps 683 mmHg 57%
    21:00 +14°C° 0.3 mm 1 mps 683 mmHg 61%
    22:00 +14°C° 0 mm 1 mps 683 mmHg 62%
    23:00 +13°C° 0 mm 1 mps 683 mmHg 64%
    Show more